This is the latest recevied weather packets stored in our database for station/object W2BP-13. If no packets are shown the sender has not sent any weather packets the latest 10 day(s).
| Time | Temp. | Humidity | Pressure | Rain* | Wind** | Luminosity | Snow |
|---|---|---|---|---|---|---|---|
| 1777768832 | 30.56° C | 24% | 1014.6 hPa | 0 mm | - | - | - |
| 1777767933 | 30° C | 23% | 1014.7 hPa | 0 mm | - | - | - |
| 1777767033 | 30.56° C | 22% | 1014.6 hPa | 0 mm | - | - | - |
| 1777766132 | 30° C | 26% | 1014.9 hPa | 0 mm | - | - | - |
| 1777765233 | 30° C | 26% | 1015.2 hPa | 0 mm | - | - | - |
| 1777764333 | 29.44° C | 26% | 1015.4 hPa | 0 mm | - | - | - |
| 1777763433 | 30° C | 27% | 1015.4 hPa | 0 mm | - | - | - |
| 1777762533 | 29.44° C | 29% | 1015.8 hPa | 0 mm | - | - | - |
| 1777761632 | 29.44° C | 29% | 1015.8 hPa | 0 mm | - | - | - |
| 1777760732 | 28.89° C | 28% | 1015.8 hPa | 0 mm | - | - | - |
| 1777759833 | 30° C | 26% | 1015.9 hPa | 0 mm | - | - | - |
| 1777758933 | 29.44° C | 29% | 1016.3 hPa | 0 mm | - | - | - |
| 1777758032 | 28.33° C | 28% | 1016.4 hPa | 0 mm | - | - | - |
| 1777757132 | 28.33° C | 28% | 1016.5 hPa | 0 mm | - | - | - |
| 1777756232 | 28.33° C | 29% | 1016.7 hPa | 0 mm | - | - | - |
| 1777755333 | 27.22° C | 26% | 1017.1 hPa | 0 mm | - | - | - |
| 1777754432 | 27.22° C | 27% | 1017.1 hPa | 0 mm | - | - | - |
| 1777753532 | 26.67° C | 30% | 1017.1 hPa | 0 mm | - | - | - |
| 1777752633 | 27.22° C | 28% | 1017.3 hPa | 0 mm | - | - | - |
| 1777751733 | 27.22° C | 31% | 1017.5 hPa | 0 mm | - | - | - |
| 1777750832 | 26.67° C | 32% | 1017.6 hPa | 0 mm | - | - | - |
| 1777749932 | 27.22° C | 31% | 1017.7 hPa | 0 mm | - | - | - |
| 1777749033 | 27.78° C | 32% | 1017.6 hPa | 0 mm | - | - | - |
| 1777748132 | 27.22° C | 32% | 1017.9 hPa | 0 mm | - | - | - |
| 1777747232 | 26.67° C | 35% | 1018 hPa | 0 mm | - | - | - |
* Rain latest hour (hover to see other rain measurements)
** Current wind speed in m/s (hover to see current wind gust speed)